Weather History for Hilton Head Island, SC

Change the Weather History Date:

Thursday, October 11, 2012

  Actual Average Record
Temperature  
Mean Temperature 66 °F -  
Max Temperature 73 °F 78 °F 90 °F (1980)
Min Temperature 59 °F 59 °F 46 °F (1976)
Cooling Degree Days 1    
Growing Degree Days 16 (Base 50)    
Moisture  
Dew Point 58 °F    
Average Humidity 86    
Maximum Humidity 100    
Minimum Humidity 60    
Precipitation  
Precipitation 0.00 in - - ()
Sea Level Pressure  
Sea Level Pressure 30.20 in    
Wind  
Wind Speed 4 mph (North)    
Max Wind Speed 12 mph    
Max Gust Speed -    
Visibility 9 miles    
Events      
Averages and records for this station are not official NWS values.
T = Trace of Precipitation, MM = Missing Value Source: NWS Daily Summary

Daily Weather History Graph

Daily Weather History Graph

Search for Another Location

Airport:

Trip Planner

Search our weather history database for the weather conditions in past years. The results will help you decide how hot, cold, wet, or windy it might be!

Date:

Astronomy

Oct. 11, 2012 Rise Set
Actual Time 7:23 AM EDT 6:54 PM EDT
Civil Twilight 6:59 AM EDT 7:18 PM EDT
Nautical Twilight 6:30 AM EDT 7:47 PM EDT
Astronomical Twilight 6:02 AM EDT 8:15 PM EDT
Moon 3:14 AM EDT (10/11) 4:18 PM EDT (10/11)
Length of Visible Light 12h 19m
Length of Day
11h 30m
Waning Crescent, 18% of the Moon is Illuminated
Oct 11
Waning Crescent
Oct 15
New
Oct 21
First Quarter
Oct 29
Full
Nov 6
Last Quarter

Hourly Weather History & Observations

Time (EDT) Temp. Dew Point Humidity Pressure Visibility Wind Dir Wind Speed Gust Speed Precip Events Conditions
12:15 AM 60.8 °F 60.8 °F 100% 30.15 in 5.0 mi West 3.5 mph - 0.00 in   Clear
12:35 AM 60.8 °F 60.8 °F 100% 30.15 in 5.0 mi Calm Calm - 0.00 in   Clear
12:55 AM 60.8 °F 60.8 °F 100% 30.15 in 7.0 mi WNW 4.6 mph - 0.00 in   Clear
1:15 AM 60.8 °F 60.8 °F 100% 30.15 in 10.0 mi NW 3.5 mph - 0.00 in   Clear
1:35 AM 60.8 °F 60.8 °F 100% 30.16 in 10.0 mi Calm Calm - 0.00 in   Clear
1:55 AM 60.8 °F 60.8 °F 100% 30.16 in 5.0 mi Calm Calm - 0.00 in   Clear
2:15 AM 59.0 °F 59.0 °F 100% 30.16 in 7.0 mi North 3.5 mph - 0.00 in   Clear
2:35 AM 59.0 °F 59.0 °F 100% 30.16 in 7.0 mi Calm Calm - 0.00 in   Clear
2:55 AM 59.0 °F 59.0 °F 100% 30.16 in 6.0 mi Calm Calm - 0.00 in   Clear
3:15 AM 59.0 °F 59.0 °F 100% 30.16 in 7.0 mi Calm Calm - 0.00 in   Clear
3:35 AM 59.0 °F 59.0 °F 100% 30.16 in 9.0 mi North 3.5 mph - 0.00 in   Clear
3:55 AM 60.8 °F 60.8 °F 100% 30.16 in 10.0 mi North 6.9 mph - 0.00 in   Clear
4:15 AM 64.4 °F 55.4 °F 73% 30.16 in 10.0 mi North 9.2 mph - 0.00 in   Clear
4:35 AM 64.4 °F 55.4 °F 73% 30.16 in 10.0 mi North 6.9 mph - 0.00 in   Clear
4:55 AM 64.4 °F 55.4 °F 73% 30.16 in 10.0 mi North 5.8 mph - 0.00 in   Clear
5:15 AM 62.6 °F 55.4 °F 77% 30.16 in 10.0 mi North 6.9 mph - 0.00 in   Clear
5:35 AM 62.6 °F 55.4 °F 77% 30.16 in 10.0 mi North 6.9 mph - 0.00 in   Clear
5:55 AM 62.6 °F 55.4 °F 77% 30.17 in 10.0 mi North 6.9 mph - 0.00 in   Clear
6:15 AM 62.6 °F 55.4 °F 77% 30.17 in 10.0 mi North 9.2 mph - 0.00 in   Clear
6:35 AM 62.6 °F 55.4 °F 77% 30.17 in 10.0 mi North 5.8 mph - 0.00 in   Clear
7:50 AM 62.6 °F 55.4 °F 77% 30.19 in 10.0 mi NNE 5.8 mph - N/A   Clear
8:50 AM 64.4 °F 55.4 °F 73% 30.22 in 10.0 mi NNE 9.2 mph - N/A   Clear
9:50 AM 66.2 °F 53.6 °F 64% 30.25 in 10.0 mi NNE 10.4 mph - N/A   Clear
10:50 AM 69.8 °F 55.4 °F 60% 30.26 in 10.0 mi North 11.5 mph - N/A   Clear
11:50 AM 68.0 °F 55.4 °F 64% 30.27 in 10.0 mi NNE 9.2 mph - N/A   Clear
1:50 PM 71.6 °F 57.2 °F 60% 30.25 in 10.0 mi NNE 9.2 mph - N/A   Scattered Clouds
2:50 PM 69.8 °F 59.0 °F 68% 30.24 in 10.0 mi NNE 9.2 mph - N/A   Scattered Clouds
3:50 PM 73.4 °F 60.8 °F 65% 30.23 in 10.0 mi ENE 9.2 mph - N/A   Scattered Clouds
4:50 PM 71.6 °F 60.8 °F 69% 30.23 in 10.0 mi ENE 5.8 mph - N/A   Partly Cloudy
5:50 PM 71.6 °F 59.0 °F 64% 30.23 in 10.0 mi ENE 5.8 mph - N/A   Clear
6:50 PM 64.4 °F 60.8 °F 88% 30.23 in 10.0 mi Calm Calm - N/A   Clear
7:50 PM 62.6 °F 60.8 °F 94% 30.24 in 10.0 mi Calm Calm - N/A   Clear
8:50 PM 62.6 °F 60.8 °F 94% 30.24 in 10.0 mi Calm Calm - N/A   Clear
9:15 PM 60.8 °F 60.8 °F 100% 30.25 in 10.0 mi Calm Calm - 0.00 in   Clear
9:35 PM 60.8 °F 60.8 °F 100% 30.25 in 10.0 mi Calm Calm - 0.00 in   Clear
9:55 PM 60.8 °F 60.8 °F 100% 30.25 in 10.0 mi Calm Calm - 0.00 in   Clear
10:15 PM 60.8 °F 60.8 °F 100% 30.25 in 10.0 mi Calm Calm - 0.00 in   Clear
10:35 PM 60.8 °F 59.0 °F 94% 30.25 in 10.0 mi Calm Calm - 0.00 in   Clear
10:55 PM 60.8 °F 59.0 °F 94% 30.25 in 10.0 mi Calm Calm - 0.00 in   Clear
11:55 PM 59.0 °F 59.0 °F 100% 30.24 in 9.0 mi Calm Calm - 0.00 in   Clear